Terminal Aerodrome Forecast
Issued by NWS Chicago, IL

Home | Current Version | Previous Version | Graphics & Text | Print | Product List | Glossary On
Versions: 1 2 3 4 5 6 7 8 9 10 11 12 13 14 15 16 17 18 19 20 21 22 23 24 25 26 27 28 29 30 31 32
000
FTUS43 KLOT 071900 AAA
TAFRFD
TAF AMD
KRFD 071959Z 0720/0818 28008KT P6SM FEW060 BKN250
     FM080100 24006KT P6SM SCT050 BKN100
     FM080700 25006KT P6SM VCTS BKN050CB BKN100
     FM081000 27008KT P6SM BKN050
     FM081600 31014G21KT P6SM SCT050=

USA.gov is the U.S. government's official web portal to all federal, state and local government web resources and services.